COSMOS 2432 (719)

Last updated on Oct. 25, 2020, 5:57 a.m. UTC

1 32276U 07052B   20297.92132208 -.00000091  00000-0  10000-3 0  9996
2 32276  66.0290  24.7394 0008349 321.8656 292.9523  2.13103583101144
UTC
Height (km)
Latitude
Longitude
Inclination
Orbital Period
UTC large
Height (km)
Speed (km/s)
/
Latitude / Longitude
Inclination (degrees)
Orbital Period (minutes)
Azimuth
Elevation
Range (km)
Doppler Factor
iOS Compass Heading
iOS Angle

Next 30 passes for location: Hong Kong

Rise time Rise Azimuth (degrees) Set time Set Azimuth (degrees) Duration Max altitude (degrees)

No matching passes for this satellites